Flag for Russia Weather past 2 weeks in Petropavlovsk-Kamchatsky, Russia

Now
61 °F

Partly sunny.


Feels Like: 61 °F
Forecast: 49 / 63 °F
Wind: 6 mph from Southeast

Location: Petropavlovsk-Kamchatskij

Current Time: Sep 3, 2015 at 5:20:04 PM

Latest Report: Sep 3, 2015 at 4:30 PM


Visibility: N/A

Pressure: 29.59 "Hg

Humidity: 52%

Dew point: 43 °F

Location of Petropavlovsk-KamchatskyLocation

Historic Weather in Petropavlovsk-Kamchatsky — Graph

°F

Petropavlovsk-Kamchatsky temperature yesterday

Maximum temperature yesterday: 68 °F (at 2:30 PM)
Minimum temperature yesterday: 48 °F (at 7:00 AM)
Average temperature yesterday: 59 °F

Past Weeks' High & Low Weather Summary

 TemperatureHumidityPressure
High79 °F (Aug 19, 4:30 PM)94% (Aug 23, 12:00 AM)30.24 "Hg (Aug 23, 12:00 AM)
Low39 °F (Aug 26, 7:00 AM)23% (Aug 26, 2:00 PM)29.42 "Hg (Aug 24, 5:00 PM)
Average55 °F74%29.80 "Hg
* Reported Aug 19 4:00 PM — Sep 3 4:30 PM, Petropavlovsk-Kamchatsky, Weather by CustomWeather, © 2015

Note: Actual official high and low records may vary slightly from our data, if they occured in-between our weather recording intervals... More about our weather records

Advertising

Petropavlovsk-Kamchatsky weather history for previous 24 hours

 ConditionsComfort  
Time TempWeatherWind HumidityBarometerVisibility
4:30 PM
Thu, Sep 3
61 °FPartly sunny.6 mph52%29.59 "HgN/A
4:00 PM64 °FPartly sunny.3 mph43%29.56 "HgN/A
3:30 PM64 °FPartly sunny.3 mph43%29.56 "HgN/A
3:00 PM66 °FClear.8 mph37%29.59 "HgN/A
2:30 PM64 °FClear.10 mph40%29.59 "HgN/A
2:00 PM64 °FClear.8 mph34%29.59 "HgN/A
1:30 PM63 °FClear.10 mph37%29.59 "HgN/A
1:00 PM61 °FClear.13 mph42%29.59 "HgN/A
12:30 PM59 °FClear.10 mph48%29.62 "HgN/A
12:00 PM59 °FClear.13 mph45%29.62 "HgN/A
11:30 AM57 °FClear.10 mph48%29.62 "HgN/A
11:00 AM57 °FClear.6 mph51%29.65 "HgN/A
10:30 AM54 °FClear.6 mph63%29.65 "HgN/A
9:30 AM50 °FClear.3 mph67%29.65 "HgN/A
9:00 AM48 °FClear.6 mph76%29.65 "HgN/A
8:30 AM45 °FClear.3 mph87%29.65 "HgN/A
8:00 AM45 °FClear.3 mph81%29.65 "HgN/A
7:30 AM43 °FClear.6 mph87%29.65 "HgN/A
7:00 AM41 °FClear.3 mph87%29.65 "HgN/A
6:00 AM43 °FClear.8 mph87%29.65 "HgN/A
5:00 AM41 °FClear.3 mph87%29.65 "HgN/A
4:00 AM41 °FClear.3 mph87%29.65 "HgN/A
3:00 AM43 °FClear.3 mph87%29.65 "HgN/A
2:00 AM43 °FClear.3 mph87%29.65 "HgN/A
1:00 AM46 °FClear.3 mph82%29.65 "HgN/A
12:00 AM48 °FClear.6 mph76%29.65 "HgN/A
11:00 PM
Wed, Sep 2
48 °FClear.3 mph71%29.62 "HgN/A
10:00 PM54 °FClear.8 mph58%29.62 "HgN/A
9:00 PM55 °FClear.8 mph55%29.59 "HgN/A
8:00 PM57 °FClear.6 mph51%29.59 "HgN/A
7:30 PM61 °FClear.6 mph39%29.56 "HgN/A
7:00 PM63 °FClear.8 mph34%29.56 "HgN/A
6:30 PM63 °FScattered clouds.13 mph34%29.56 "HgN/A
6:00 PM63 °FScattered clouds.10 mph32%29.53 "HgN/A
5:30 PM63 °FPartly sunny.17 mph32%29.53 "HgN/A
5:00 PM66 °FPartly sunny.13 mph30%29.53 "HgN/A
Weather by CustomWeather, © 2015

See weather overviewHow to use our weather pages